Starlink 11699

operational
NORAD ID: 63762 Int'l Des: 2025-089 Owner: SPXS Country: US Constellation: starlink
LEOCIRCULAR

Über Starlink 11699

Beschreibung wird geladen...

Live-Position

3D-Globus wird geladen...

Nächste Überflüge

Höhenverlauf

Altitude vs Time

uPlot chart will show altitude changes over time

Zweizeiliger Elementsatz

1 63762U 25089M 25353.52729216 .00200474 00000-0 15116-2 0 9993
2 63762 43.0012 55.8292 0002836 297.3791 62.6788 15.71102654 37520
Epoch: 19. Dez. 2025 • Age: 19 hours

Aktueller Status

Höhe 366.3 km
Geschwindigkeit 7.69 km/s
Subsatellitenpunkt -42.79°S, 118.92°E
Startdatum 29. Apr. 2025
Alter 0.6 years
Typ internet

Technische Details

Klassifizierung Payload
Masse 960.00 kg
Trockenmasse 910.00 kg
Gesamtmasse 960.00 kg
Länge 0.30 m
Durchmesser 4.10 m
Spannweite 29.00 m
Form Box + pan
Hersteller SPXS
Bus-Typ Starlink V2MD
Phasenstatus In Orbit
Besitzer/Staat SPXS/US

Große Konstellationen

Loading constellations...